Tracking 19792 objects as of 16-Jul-2019
HD Live streaming from Space Station
objects crossing your sky now

COSMOS 1275 DEB

Track COSMOS 1275 DEB now!
10-day predictions


NORAD ID: 13471
Int'l Code: 1981-053FT
Perigee: 879.5 km
Apogee: 961.7 km
Inclination: 82.8 °
Period: 103.3 minutes
Semi major axis: 7291 km
RCS: 0.0585 m2 (small)
Launch date: June 4, 1981
Source: Commonwealth of Independent States (former USSR) (CIS)
Launch site: PLESETSK MISSILE AND SPACE COMPLEX (PKMTR)

Note: This is SATELLITE DEBRIS
aabbcc
Your satellite tracking list
Your tracking list is empty




NASA's NSSDC Master Catalog

Two Line Element Set (TLE):
1 13471U 81053FT  19196.95482366  .00000300  00000-0  21108-3 0  9990
2 13471  82.8120   7.9864 0056370  52.8955 100.0023 13.94344316874854
Source of the keplerian elements: AFSPC